星链-5770 (STARLINK-5770 )

导读

STARLINK-5770是美国于2023年3月24日发射的星链卫星,隶属于SpaceX公司的星链星座项目。该项目旨在构建全球卫星互联网星座,为全球偏远地区等提供高速互联网接入服务。作为星链组网卫星之一,它进一步扩充了星链星座的规模,推动项目全球覆盖目标的实现。

Basic Information
目录编号:
56026
目录名称:
STARLINK-5770
国际标识:
2023-042AS
轨道中心:
EARTH
卫星名称:
星链-5770
卫星全名:
星链-5770 (STARLINK-5770 )
卫星状态:
在轨 (已飞行1179 天)
发射日期:
2023-03-24 UTC
国别 :
美国 (US)
星等 :
--
Orbit Information
数据来源 国际轨道数据 AOE轨道数据
星历时间 2026-06-14T18:11:20+0800
15小时前
查看轨道信息
2026-06-15T02:00:00+0800
8小时前
查看轨道信息
半长轴 6861.184km 6861.25km
偏心率 0.0001946 0.0000041
轨道倾角 43.008° 43.003°
近地点辐角 280.184° 169.532°
升交点赤经 218.601° 216.761°
平近点角 79.879° 182.405°
近地点 481.711km 483.084km
远地点 484.383km 483.142km
周期 94.267分钟 94.268分钟
每日圈数 15.275808 15.275589
Detailed Information
固有亮度:
5
最大亮度:
2.5
卫星平台:
Starlink v1.5
覆盖范围:
全球
运营商:
太空探索技术公司
运营商所在国:
美国
制造商(研发单位):
太空探索技术公司
制造商所在国:
美国
使用方式:
暂无
Satellite Introduction
星链(Starlink)计划是由太空探索技术公司(SpaceX)提出的一个巨型低轨卫星互联网星座项目,计划在2019年至2024年间在太空搭建由约1.2万颗卫星组成的“星链”网络,其中1584颗将部署在地球上空550千米处的近地轨道,并从2020年开始工作。该卫星仍在工作。
2D Orbit Map
3D Orbit Map
Orbit Altitude Analysis Chart
Orbit Inclination Analysis Chart
Orbit Comprehensive Analysis Chart
View Comprehensive Chart